Change the Weather History Date:

Monday, October 1, 2012

  Actual Average Record
Temperature  
Mean Temperature 60 °F -  
Max Temperature 60 °F 57 °F 71 °F (2000)
Min Temperature 59 °F 43 °F 42 °F (2001)
Degree Days  
Heating Degree Days 6    
Growing Degree Days 10 (Base 50)    
Moisture  
Dew Point 58 °F    
Average Humidity 93    
Maximum Humidity 94    
Minimum Humidity 88    
Precipitation  
Precipitation 0.00 in - - ()
Sea Level Pressure  
Sea Level Pressure 29.60 in    
Wind  
Wind Speed 12 mph ()    
Max Wind Speed 20 mph    
Max Gust Speed 30 mph    
Visibility 4.7 miles    
Events Rain    
Averages and records for this station are not official NWS values.
T = Trace of Precipitation, MM = Missing Value Source: Averaged Metar Reports

Daily Weather History Graph

Daily Weather History Graph

Search for Another Location

Airport or City:

Trip Planner

Search our weather history database for the weather conditions in past years. The results will help you decide how hot, cold, wet, or windy it might be!

Date:

Astronomy

Oct. 01, 2012 Rise Set
Actual Time 5:20 AM JST 5:04 PM JST
Civil Twilight 4:52 AM JST 5:33 PM JST
Nautical Twilight 4:18 AM JST 6:06 PM JST
Astronomical Twilight 3:44 AM JST 6:40 PM JST
Moon 5:15 PM JST (10/1) 6:15 AM JST (10/1)
Length of Visible Light 12h 41m
Length of Day
11h 43m
Full, 99% of the Moon is Illuminated
Oct 1
Full
Oct 8
Last Quarter
Oct 15
New
Oct 22
First Quarter
Oct 30
Full

Hourly Weather History & Observations

Time (JST) Temp. Dew Point Humidity Pressure Visibility Wind Dir Wind Speed Gust Speed Precip Events Conditions
8:00 AM 60.8 °F 59.0 °F 94% 29.59 in - North 13.8 mph - N/A Rain Rain Showers
9:00 AM 60.8 °F 59.0 °F 94% 29.56 in - North 13.8 mph - N/A Rain Rain Showers
9:47 AM 60.8 °F 59.0 °F 94% 29.50 in 3.1 mi North 16.1 mph - N/A Rain Light Rain Showers
10:00 AM 60.8 °F 59.0 °F 94% 29.47 in 3.1 mi NE 17.3 mph - N/A Rain Light Rain Showers
10:09 AM 60.8 °F 59.0 °F 94% 29.47 in 3.1 mi North 18.4 mph 29.9 mph N/A Rain Rain Showers
10:23 AM 60.8 °F 59.0 °F 94% 29.47 in 3.1 mi NNE 19.6 mph - N/A Rain Rain Showers
10:36 AM 60.8 °F 59.0 °F 94% 29.47 in 4.3 mi North 18.4 mph - N/A Rain Light Rain Showers
11:00 AM 60.8 °F 59.0 °F 94% 29.50 in 5.0 mi North 18.4 mph - N/A Rain Light Rain Showers
11:48 AM 60.8 °F 59.0 °F 94% 29.53 in - North 15.0 mph - N/A Rain Rain Showers
12:00 PM 60.8 °F 59.0 °F 94% 29.53 in - North 15.0 mph - N/A Rain Rain Showers
12:48 PM 60.8 °F 59.0 °F 94% 29.56 in - NNW 12.7 mph - N/A Rain Light Rain Showers
1:00 PM 60.8 °F 59.0 °F 94% 29.59 in - NNW 12.7 mph - N/A Rain Light Rain Showers
1:27 PM 60.8 °F 59.0 °F 94% 29.59 in - North 10.4 mph - N/A Rain Rain Showers
2:00 PM 60.8 °F 59.0 °F 94% 29.62 in - NNW 9.2 mph - N/A Rain Light Rain Showers
2:29 PM 60.8 °F 59.0 °F 94% 29.65 in 4.3 mi NNW 10.4 mph - N/A Rain Light Rain Showers
2:49 PM 60.8 °F 57.2 °F 88% 29.65 in 4.3 mi North 10.4 mph - N/A   Mostly Cloudy
3:00 PM 60.8 °F 57.2 °F 88% 29.65 in 4.3 mi North 11.5 mph - N/A Rain Light Rain Showers
4:00 PM 59.0 °F 57.2 °F 94% 29.71 in 6.2 mi NNW 10.4 mph - N/A Rain Light Rain Showers
5:00 PM 59.0 °F 57.2 °F 94% 29.74 in 6.2 mi North 6.9 mph - N/A Rain Light Rain Showers
6:00 PM 59.0 °F 55.4 °F 88% 29.77 in 6.2 mi NNW 5.8 mph - N/A   Mostly Cloudy
7:00 PM 59.0 °F 55.4 °F 88% 29.80 in 6.2 mi NNW 4.6 mph - N/A   Mostly Cloudy
8:00 PM 59.0 °F 55.4 °F 88% 29.80 in 6.2 mi NW 2.3 mph - N/A   Mostly Cloudy